GW4712 Weather Reports


time (UTC)temp
C
wind
direction
speed
KPH
gust
KPH
rain 1hr
cm
rain 24hr
cm
rain mn
cm
humidity
%
barometer
mb
20260507214956 17 320 14.5 17.7 0.00 0.03 0.03 35 1011.7
20260507214453 17 283 4.8 11.3 0.00 0.03 0.03 38 1011.6
20260507213949 17 318 6.4 14.5 0.00 0.03 0.03 37 1011.7
20260507213446 17 319 14.5 20.9 0.00 0.03 0.03 39 1011.8
20260507212943 16 317 9.7 12.9 0.00 0.03 0.03 39 1011.7
20260507212438 16 313 6.4 11.3 0.00 0.03 0.03 43 1011.9
20260507211936 17 317 11.3 17.7 0.00 0.03 0.03 42 1011.6
20260507211432 18 302 8.0 14.5 0.00 0.03 0.03 38 1011.3
20260507210929 17 249 1.6 12.9 0.00 0.03 0.03 34 1011.3
20260507210426 16 300 11.3 17.7 0.00 0.03 0.03 40 1011.6
20260507205923 16 326 1.6 11.3 0.00 0.03 0.03 40 1011.4
20260507205420 17 331 12.9 14.5 0.00 0.03 0.03 40 1011.4
20260507204916 16 30 4.8 6.4 0.00 0.03 0.03 39 1011.2
20260507204412 16 250 3.2 6.4 0.00 0.03 0.03 40 1011.4
20260507203910 16 314 12.9 17.7 0.00 0.03 0.03 40 1011.6
20260507203408 16 308 14.5 20.9 0.00 0.03 0.03 38 1011.7
20260507202904 16 250 12.9 17.7 0.00 0.03 0.03 44 1011.6
20260507202400 17 324 3.2 4.8 0.00 0.03 0.03 38 1011.3
20260507201856 17 320 3.2 9.7 0.00 0.03 0.03 39 1011.4
20260507201351 17 314 3.2 11.3 0.00 0.03 0.03 44 1011.4
20260507200848 17 308 9.7 16.1 0.00 0.03 0.03 42 1011.5
20260507200344 17 328 4.8 9.7 0.00 0.03 0.03 40 1011.8
20260507195840 17 297 14.5 22.5 0.00 0.03 0.03 43 1011.6
20260507195338 17 255 11.3 12.9 0.00 0.03 0.03 37 1011.7
20260507194835 17 278 8.0 16.1 0.00 0.03 0.03 45 1011.9
20260507194331 17 314 6.4 11.3 0.00 0.03 0.03 40 1011.7
20260507193828 17 323 4.8 9.7 0.00 0.03 0.03 39 1012.2
20260507193325 16 316 8.0 16.1 0.00 0.03 0.03 42 1012.2
20260507192820 15 309 11.3 17.7 0.00 0.03 0.03 43 1012.1
20260507192318 15 314 8.0 17.7 0.00 0.03 0.03 44 1012.4
20260507191814 15 337 9.7 16.1 0.00 0.03 0.03 47 1012.3
20260507191310 16 308 11.3 22.5 0.00 0.03 0.03 46 1012.1
20260507190808 17 330 9.7 16.1 0.00 0.03 0.03 40 1012.3
20260507190306 17 311 8.0 11.3 0.00 0.03 0.03 39 1012.1
20260507185804 17 314 4.8 11.3 0.00 0.03 0.03 46 1012.0
20260507185300 17 310 6.4 12.9 0.00 0.03 0.03 41 1012.1
20260507184758 16 309 8.0 12.9 0.00 0.03 0.03 49 1012.3
20260507184256 17 337 9.7 12.9 0.00 0.03 0.03 41 1012.3
20260507183752 17 329 9.7 12.9 0.00 0.03 0.03 47 1012.3
20260507183250 16 320 11.3 24.1 0.00 0.03 0.03 41 1012.3
20260507182747 17 315 6.4 12.9 0.00 0.03 0.03 45 1012.2
20260507182242 16 312 9.7 20.9 0.00 0.03 0.03 46 1012.4
20260507181739 15 306 9.7 12.9 0.00 0.03 0.03 49 1012.4
20260507181235 16 311 12.9 17.7 0.00 0.03 0.03 47 1012.3
20260507180732 16 286 11.3 16.1 0.00 0.03 0.03 43 1012.2
20260507180229 16 302 12.9 25.7 0.00 0.03 0.03 44 1012.5
20260507175724 16 255 3.2 6.4 0.00 0.03 0.03 45 1012.7
20260507175221 15 307 8.0 20.9 0.00 0.03 0.03 47 1012.7
20260507174719 16 295 6.4 14.5 0.00 0.03 0.03 48 1012.7
20260507174217 15 313 1.6 17.7 0.00 0.03 0.03 53 1012.6
20260507173714 16 310 8.0 12.9 0.00 0.03 0.03 45 1012.6
20260507173211 16 307 9.7 11.3 0.00 0.03 0.03 47 1012.8
20260507172708 16 298 4.8 11.3 0.00 0.03 0.03 44 1012.6
20260507172204 16 266 1.6 6.4 0.00 0.03 0.03 58 1012.7
20260507171704 16 313 12.9 17.7 0.00 0.03 0.03 55 1012.7
20260507171202 15 310 6.4 17.7 0.00 0.03 0.03 53 1013.0
20260507170659 14 309 6.4 12.9 0.00 0.03 0.03 53 1013.0
20260507170156 14 315 9.7 14.5 0.00 0.03 0.03 49 1013.0
20260507165651 15 305 3.2 6.4 0.00 0.03 0.03 50 1013.1
20260507165148 15 265 9.7 12.9 0.00 0.03 0.03 46 1013.0
20260507164644 15 261 8.0 9.7 0.00 0.03 0.03 45 1013.2
20260507164141 15 326 4.8 12.9 0.00 0.03 0.03 54 1013.4
20260507163633 15 326 4.8 12.9 0.00 0.03 0.03 54 1013.4
20260507163131 14 304 4.8 6.4 0.00 0.03 0.03 51 1013.4
20260507162626 14 10 3.2 6.4 0.00 0.03 0.03 56 1013.3
20260507162122 14 326 1.6 6.4 0.00 0.03 0.03 52 1013.3
20260507161618 15 306 1.6 9.7 0.00 0.03 0.03 53 1013.2
20260507161115 14 18 0.0 4.8 0.00 0.03 0.03 50 1013.4
20260507160611 14 5 3.2 9.7 0.00 0.03 0.03 56 1013.5
20260507160108 14 320 6.4 6.4 0.00 0.03 0.03 49 1013.5
20260507155603 13 264 9.7 17.7 0.00 0.03 0.03 52 1013.5
20260507155100 14 259 3.2 11.3 0.00 0.03 0.03 52 1013.7
20260507154557 15 243 3.2 11.3 0.00 0.03 0.03 49 1013.6
20260507154054 14 309 6.4 16.1 0.00 0.03 0.03 51 1013.8
20260507153551 13 311 3.2 9.7 0.00 0.03 0.03 56 1013.6
20260507153047 13 302 3.2 12.9 0.00 0.03 0.03 55 1013.9
20260507152543 13 7 4.8 9.7 0.00 0.03 0.03 55 1013.9
20260507152040 14 312 9.7 12.9 0.00 0.03 0.03 55 1013.7
20260507151536 14 318 0.0 6.4 0.00 0.03 0.03 49 1013.8
20260507151033 13 284 0.0 3.2 0.00 0.03 0.03 52 1014.0
20260507150530 13 231 1.6 6.4 0.00 0.03 0.03 50 1013.7
20260507150027 13 315 1.6 9.7 0.00 0.03 0.03 58 1013.8
20260507145521 14 301 1.6 1.6 0.00 0.03 0.03 53 1013.8
20260507145020 13 175 1.6 3.2 0.00 0.03 0.03 55 1014.0
20260507144516 12 247 4.8 4.8 0.00 0.03 0.03 57 1013.9
20260507144014 13 314 8.0 12.9 0.00 0.03 0.03 59 1014.1
20260507143511 13 331 0.0 4.8 0.00 0.03 0.03 57 1014.1
20260507143008 13 253 4.8 4.8 0.00 0.03 0.03 57 1014.1
20260507142503 13 241 6.4 6.4 0.00 0.03 0.03 56 1014.2
20260507142000 13 277 3.2 4.8 0.00 0.03 0.03 60 1014.5
20260507141456 13 301 1.6 3.2 0.00 0.03 0.03 61 1014.4
20260507140953 12 13 3.2 4.8 0.00 0.03 0.03 61 1014.6
20260507140450 12 309 3.2 6.4 0.00 0.03 0.03 66 1014.5
20260507135947 12 260 3.2 6.4 0.00 0.03 0.03 61 1014.6
20260507135444 12 312 4.8 6.4 0.00 0.03 0.03 65 1014.7
20260507134941 12 314 3.2 6.4 0.00 0.03 0.03 67 1014.7
20260507134438 12 26 4.8 6.4 0.00 0.03 0.03 65 1014.6
20260507133934 12 22 3.2 3.2 0.00 0.03 0.03 63 1014.9
20260507133430 12 22 0.0 3.2 0.00 0.03 0.03 64 1014.8
20260507132929 12 279 3.2 3.2 0.00 0.03 0.03 68 1014.8
20260507132424 11 270 0.0 3.2 0.00 0.03 0.03 72 1014.8
20260507131921 12 227 0.0 0.0 0.00 0.03 0.03 71 1014.9
20260507131418 11 199 0.0 3.2 0.00 0.03 0.03 74 1014.9
20260507130915 11 198 0.0 1.6 0.00 0.03 0.03 72 1014.9
20260507130412 11 198 1.6 3.2 0.00 0.03 0.03 79 1014.8
20260507125911 12 280 1.6 3.2 0.00 0.03 0.03 79 1014.8
20260507125409 11 281 0.0 1.6 0.00 0.03 0.03 81 1014.8
20260507124906 11 281 0.0 0.0 0.00 0.03 0.03 88 1014.9
20260507124401 10 280 0.0 0.0 0.00 0.03 0.03 90 1015.1
20260507123900 10 280 0.0 0.0 0.00 0.03 0.03 90 1014.9
20260507123357 10 280 0.0 0.0 0.00 0.03 0.03 91 1014.9
20260507122853 9 280 0.0 0.0 0.00 0.03 0.03 93 1015.2
20260507122349 9 280 1.6 3.2 0.00 0.03 0.03 95 1015.1
20260507121845 8 281 0.0 0.0 0.00 0.03 0.03 97 1015.1
20260507121341 8 281 0.0 0.0 0.00 0.03 0.03 97 1014.9
20260507120837 8 281 0.0 0.0 0.00 0.03 0.03 99 1014.9
20260507120334 8 281 0.0 0.0 0.00 0.03 0.03 99 1015.2
20260507115830 8 281 0.0 0.0 0.00 0.03 0.03 99 1014.9
20260507115326 8 281 0.0 1.6 0.00 0.03 0.03 99 1015.1
20260507114822 8 281 0.0 0.0 0.00 0.03 0.03 99 1015.1
20260507114319 7 281 0.0 0.0 0.00 0.03 0.03 99 1014.8
20260507113817 7 281 0.0 0.0 0.00 0.03 0.03 99 1014.9
20260507113313 7 281 1.6 1.6 0.00 0.03 0.03 99 1014.7
20260507112811 7 281 1.6 1.6 0.00 0.03 0.03 99 1014.6
20260507112308 7 281 0.0 0.0 0.00 0.03 0.03 99 1014.5
20260507111806 7 281 0.0 0.0 0.00 0.03 0.03 99 1014.5
20260507111302 7 281 0.0 0.0 0.00 0.03 0.03 99 1014.5
20260507110758 7 281 3.2 3.2 0.00 0.03 0.03 99 1014.5
20260507110255 7 279 0.0 0.0 0.00 0.03 0.03 99 1014.4
20260507105752 7 279 0.0 1.6 0.00 0.03 0.03 99 1014.3
20260507105247 7 279 0.0 1.6 0.00 0.03 0.03 99 1014.3
20260507104745 7 279 0.0 0.0 0.00 0.03 0.03 99 1014.1
20260507104242 7 279 0.0 0.0 0.00 0.03 0.03 99 1014.2
20260507103738 7 272 0.0 1.6 0.00 0.03 0.03 99 1014.0
20260507103234 7 272 0.0 0.0 0.00 0.03 0.03 99 1014.2
20260507102730 7 280 0.0 0.0 0.00 0.03 0.03 99 1014.3
20260507102227 7 280 0.0 0.0 0.00 0.03 0.03 99 1014.1
20260507101723 7 280 0.0 0.0 0.00 0.03 0.03 99 1014.3
20260507101219 7 280 0.0 0.0 0.00 0.03 0.03 99 1014.3
20260507100716 7 280 0.0 0.0 0.00 0.03 0.03 99 1014.1
20260507100214 7 280 0.0 0.0 0.00 0.03 0.03 99 1013.9
20260507095712 7 279 0.0 0.0 0.00 0.03 0.03 99 1014.1
20260507095208 7 279 0.0 0.0 0.00 0.03 0.03 99 1014.2
20260507094705 7 279 0.0 0.0 0.00 0.03 0.03 99 1014.0
20260507094202 7 279 0.0 0.0 0.00 0.03 0.03 99 1014.0
20260507093659 7 279 0.0 0.0 0.00 0.03 0.03 99 1013.6
20260507093158 7 279 0.0 0.0 0.00 0.03 0.03 99 1013.9
20260507092654 7 279 0.0 0.0 0.00 0.03 0.03 99 1014.1
20260507092151 7 279 0.0 0.0 0.00 0.03 0.03 99 1014.4
20260507091647 7 279 0.0 0.0 0.00 0.03 0.03 99 1013.9
20260507091144 7 279 0.0 0.0 0.00 0.03 0.03 99 1014.0
20260507090639 7 280 1.6 1.6 0.00 0.03 0.03 98 1013.9
20260507090137 7 295 0.0 0.0 0.00 0.03 0.03 98 1013.7
20260507085634 8 295 0.0 0.0 0.00 0.03 0.03 98 1013.6
20260507085130 8 296 0.0 0.0 0.00 0.03 0.03 98 1014.0
20260507084627 8 296 0.0 0.0 0.00 0.03 0.03 98 1014.0
20260507084124 8 296 0.0 0.0 0.00 0.03 0.03 98 1013.8
20260507083620 8 296 0.0 0.0 0.00 0.03 0.03 98 1013.8
20260507083118 8 296 0.0 0.0 0.00 0.03 0.03 98 1013.7
20260507082613 8 295 0.0 0.0 0.00 0.03 0.03 98 1013.8
20260507082109 8 295 0.0 0.0 0.00 0.03 0.03 98 1014.0
20260507081606 8 295 0.0 0.0 0.00 0.03 0.03 98 1013.8
20260507081103 9 295 0.0 0.0 0.00 0.03 0.03 98 1014.1
20260507080559 9 295 0.0 0.0 0.00 0.03 0.03 98 1013.9
20260507080056 9 295 0.0 0.0 0.00 0.03 0.03 98 1013.8
20260507075551 9 296 0.0 0.0 0.00 0.03 0.03 98 1014.0
20260507075047 9 295 0.0 0.0 0.00 0.03 0.03 98 1013.9
20260507074544 9 295 0.0 0.0 0.00 0.03 0.03 98 1013.7
20260507074043 9 295 0.0 0.0 0.00 0.03 0.03 98 1013.8
20260507073538 9 295 0.0 0.0 0.00 0.03 0.03 98 1014.1
20260507073035 9 296 0.0 1.6 0.00 0.03 0.03 99 1014.1
20260507072533 10 299 3.2 3.2 0.00 0.03 0.03 99 1014.0
20260507072030 10 301 1.6 3.2 0.00 0.03 0.03 99 1013.9
20260507071527 10 301 0.0 0.0 0.00 0.03 0.03 99 1014.0
20260507071024 10 301 0.0 0.0 0.00 0.03 0.03 99 1013.8
20260507070521 10 301 0.0 0.0 0.00 0.03 0.03 99 1013.8
20260507070018 10 301 0.0 0.0 0.00 0.03 0.03 99 1013.9
20260507065514 10 301 0.0 0.0 0.00 0.03 0.03 99 1013.8
20260507065011 10 301 0.0 0.0 0.00 0.03 0.03 99 1014.0
20260507064509 10 301 0.0 0.0 0.00 0.03 0.03 99 1014.0
20260507064008 10 300 0.0 1.6 0.00 0.03 0.03 99 1013.9
20260507063504 10 300 0.0 0.0 0.00 0.03 0.03 98 1013.8
20260507063001 10 300 0.0 0.0 0.00 0.03 0.03 99 1013.8
20260507062458 10 300 0.0 0.0 0.00 0.03 0.03 98 1014.0
20260507061955 10 300 0.0 0.0 0.00 0.03 0.03 98 1014.1
20260507061453 10 300 0.0 0.0 0.00 0.03 0.03 98 1014.0
20260507060951 10 300 0.0 0.0 0.00 0.03 0.03 98 1013.9
20260507060448 10 300 0.0 0.0 0.00 0.03 0.03 98 1014.1
20260507055945 10 300 0.0 0.0 0.00 0.03 0.03 98 1014.1
20260507055440 10 300 0.0 0.0 0.00 0.03 0.03 98 1014.2
20260507054937 10 300 0.0 0.0 0.00 0.03 0.03 98 1014.1
20260507054433 10 300 0.0 0.0 0.00 0.03 0.03 98 1014.2
20260507053931 10 300 0.0 0.0 0.00 0.03 0.03 98 1014.2
20260507053428 10 300 0.0 0.0 0.00 0.03 0.03 98 1014.3
20260507052926 10 300 0.0 0.0 0.00 0.03 0.03 98 1014.3
20260507052423 10 300 0.0 0.0 0.00 0.03 0.03 98 1014.2
20260507051920 10 300 0.0 0.0 0.00 0.03 0.03 98 1014.1
20260507051418 10 300 0.0 0.0 0.00 0.03 0.03 97 1014.3
20260507050915 10 301 0.0 0.0 0.00 0.03 0.03 97 1014.2
20260507050411 10 301 0.0 1.6 0.00 0.03 0.03 97 1014.2
20260507045908 10 300 0.0 0.0 0.00 0.03 0.03 97 1014.7
20260507045405 10 300 0.0 0.0 0.00 0.03 0.03 97 1014.5
20260507044902 10 300 0.0 0.0 0.00 0.03 0.03 96 1014.5
20260507044358 10 300 0.0 0.0 0.00 0.03 0.03 96 1014.5
20260507043855 10 300 0.0 0.0 0.00 0.03 0.03 96 1014.3
20260507043351 10 301 0.0 0.0 0.00 0.03 0.03 96 1014.3
20260507042847 10 301 0.0 0.0 0.00 0.03 0.03 96 1014.3
20260507042343 10 304 1.6 3.2 0.18 0.03 0.03 96 1014.3
20260507041840 10 311 4.8 4.8 0.18 0.03 0.03 96 1014.3
20260507041337 11 320 8.0 9.7 0.00 0.00 0.00 96 1014.2
20260507040834 11 310 4.8 9.7 0.00 0.00 0.00 96 1014.1
20260507040330 11 198 0.0 1.6 0.00 0.00 0.00 94 1013.8
20260507035826 11 197 1.6 1.6 0.00 1.70 1.70 93 1013.8
20260507035321 11 290 1.6 6.4 0.00 1.70 1.70 91 1014.0
20260507034820 11 254 3.2 4.8 0.13 1.70 1.70 91 1014.1
20260507034316 11 226 0.0 1.6 0.13 1.70 1.70 94 1013.9
20260507033814 11 247 1.6 3.2 0.00 1.68 1.68 95 1013.9
20260507033312 12 322 0.0 4.8 0.00 1.68 1.68 98 1013.8
20260507032808 12 265 0.0 0.0 0.00 1.68 1.68 98 1013.7
20260507032306 12 265 0.0 0.0 0.00 1.68 1.68 98 1013.7
20260507031801 12 265 0.0 0.0 0.00 1.68 1.68 98 1013.8
20260507031258 12 265 0.0 0.0 0.00 1.68 1.68 98 1013.9
20260507030755 12 265 0.0 0.0 0.00 1.68 1.68 98 1013.7
20260507030252 12 265 0.0 0.0 0.00 1.68 1.68 98 1013.7
20260507025749 12 265 0.0 0.0 0.00 1.68 1.68 98 1013.8
20260507025246 12 265 0.0 0.0 0.00 1.68 1.68 98 1014.0
20260507024745 12 265 0.0 0.0 0.00 1.68 1.68 97 1014.1
20260507024241 12 265 0.0 0.0 0.00 1.68 1.68 97 1014.0
20260507023737 12 265 0.0 0.0 0.00 1.68 1.68 98 1014.3
20260507023234 12 265 0.0 0.0 0.00 1.68 1.68 98 1014.0
20260507022731 12 265 0.0 0.0 0.00 1.68 1.68 98 1014.0
20260507022227 12 265 0.0 0.0 0.00 1.68 1.68 98 1013.7
20260507021724 12 265 0.0 0.0 0.00 1.68 1.68 98 1013.7
20260507021219 12 249 0.0 0.0 0.00 1.68 1.68 98 1013.6
20260507020718 12 249 0.0 0.0 0.00 1.68 1.68 98 1013.1
20260507020213 12 249 0.0 0.0 0.00 1.68 1.68 98 1013.1
20260507015712 12 249 0.0 0.0 0.00 1.68 1.68 98 1013.4
20260507015209 12 249 0.0 0.0 0.00 1.68 1.68 98 1013.6
20260507014705 12 249 0.0 0.0 0.00 1.68 1.68 98 1013.7
20260507014201 12 249 0.0 0.0 0.00 1.68 1.68 98 1013.2
20260507013658 12 249 0.0 0.0 0.00 1.68 1.68 97 1013.5
20260507013156 12 249 0.0 0.0 0.00 1.68 1.68 97 1013.7
20260507012653 12 248 0.0 0.0 0.00 1.68 1.68 97 1013.2
20260507012148 12 248 0.0 0.0 0.00 1.68 1.68 97 1012.8
20260507011647 12 249 0.0 0.0 0.00 1.68 1.68 97 1013.1
20260507011142 12 249 0.0 0.0 0.00 1.68 1.68 97 1013.0
20260507010637 12 249 0.0 0.0 0.00 1.68 1.68 96 1012.6
20260507010133 12 249 0.0 0.0 0.00 1.68 1.68 96 1012.8
20260507005631 12 249 0.0 0.0 0.00 1.68 1.68 96 1013.1
20260507005127 12 249 0.0 0.0 0.00 1.68 1.68 96 1013.2
20260507004624 12 248 0.0 0.0 0.00 1.68 1.68 96 1013.1
20260507004122 12 248 0.0 0.0 0.00 1.68 1.68 95 1012.8
20260507003618 12 248 0.0 0.0 0.00 1.68 1.68 96 1012.8
20260507003113 12 248 0.0 0.0 0.00 1.68 1.68 96 1012.9
20260507002609 12 248 0.0 0.0 0.00 1.68 1.68 96 1012.7
20260507002105 12 248 0.0 0.0 0.00 1.68 1.68 96 1012.8
20260507001602 12 174 0.0 0.0 0.00 1.68 1.68 96 1012.4
20260507001100 12 174 0.0 0.0 0.00 1.68 1.68 96 1012.6
20260507000556 12 174 0.0 0.0 0.00 1.68 1.68 96 1012.6
20260507000051 12 174 0.0 0.0 0.00 1.68 1.68 96 1012.6
20260506235549 12 174 0.0 0.0 0.00 1.68 1.68 96 1012.4
20260506235044 12 174 0.0 0.0 0.00 1.68 1.68 96 1012.2
20260506234542 13 174 0.0 0.0 0.00 1.68 1.68 96 1012.3
20260506234039 13 175 0.0 0.0 0.00 1.68 1.68 94 1012.6
20260506233536 13 175 0.0 0.0 0.00 1.68 1.68 93 1013.0
20260506233033 13 169 0.0 0.0 0.00 1.68 1.68 93 1013.1
20260506232529 13 168 0.0 0.0 0.00 1.68 1.68 93 1012.6
20260506232024 13 168 0.0 0.0 0.00 1.68 1.68 94 1012.5
20260506231522 13 169 0.0 0.0 0.00 1.68 1.68 93 1012.9
20260506231020 13 168 0.0 0.0 0.00 1.68 1.68 93 1012.7
20260506230516 13 168 0.0 0.0 0.00 1.68 1.68 93 1012.7
20260506230014 13 168 0.0 0.0 0.00 1.68 1.68 92 1012.7
20260506225511 13 168 0.0 0.0 0.00 1.68 1.68 92 1012.7
20260506225007 13 168 0.0 0.0 0.00 1.68 1.68 92 1012.6
20260506224503 13 168 0.0 0.0 0.00 1.68 1.68 90 1012.8
20260506224000 13 169 0.0 0.0 0.00 1.68 1.68 90 1012.9
20260506223456 13 92 0.0 0.0 0.00 1.68 1.68 90 1012.8
20260506222953 13 184 1.6 3.2 0.00 1.68 1.68 89 1012.6
20260506222450 13 306 0.0 0.0 0.00 1.68 1.68 90 1012.5
20260506221946 13 307 0.0 0.0 0.00 1.68 1.68 88 1012.3
20260506221443 13 306 0.0 0.0 0.00 1.68 1.68 89 1012.5
20260506220941 13 307 1.6 1.6 0.00 1.68 1.68 88 1012.4
20260506220437 13 307 0.0 1.6 0.00 1.68 1.68 87 1012.2
20260506215933 13 307 0.0 0.0 0.00 1.68 1.68 88 1012.1
20260506215430 13 306 0.0 0.0 0.00 1.68 1.68 87 1012.2